DW2128 Weather Reports


Display with metric or nautical units.
time (UTC)temp
F
wind
direction
speed
MPH
gust
MPH
rain 1hr
in
rain 24hr
in
rain mn
in
humidity
%
barometer
mb
20260510145054 55 340 0.0 0.0 0.00 0.00 0.00 80 1013.7
20260510144823 55 340 0.0 0.0 0.00 0.00 0.00 80 1013.7
20260510143517 55 340 0.0 0.0 0.00 0.00 0.00 81 1013.7
20260510143325 55 340 0.0 0.0 0.00 0.00 0.00 81 1013.6
20260510142040 55 340 0.0 0.0 0.00 0.00 0.00 81 1013.6
20260510141822 55 340 0.0 0.0 0.00 0.00 0.00 81 1013.5
20260510140537 55 340 0.0 0.0 0.00 0.00 0.00 81 1013.5
20260510140326 55 340 0.0 0.0 0.00 0.00 0.00 81 1013.6
20260510135019 55 340 0.0 0.0 0.00 0.00 0.00 81 1013.6
20260510134825 55 340 0.0 0.0 0.00 0.00 0.00 81 1013.4
20260510133519 55 340 0.0 0.0 0.00 0.00 0.00 81 1013.4
20260510133344 55 340 0.0 0.0 0.00 0.00 0.00 82 1013.2
20260510132036 55 340 0.0 0.0 0.00 0.00 0.00 82 1013.2
20260510131825 55 340 0.0 0.0 0.00 0.00 0.00 81 1013.1
20260510130602 56 339 0.0 0.0 0.00 0.00 0.00 81 1013.1
20260510130323 56 339 0.0 0.0 0.00 0.00 0.00 81 1013.2
20260510125036 56 339 0.0 0.0 0.00 0.00 0.00 81 1013.2
20260510124840 56 339 0.0 0.0 0.00 0.00 0.00 81 1013.2
20260510123534 56 339 0.0 0.0 0.00 0.00 0.00 81 1013.2
20260510123344 56 339 0.0 0.0 0.00 0.00 0.00 81 1013.2
20260510122036 56 339 0.0 0.0 0.00 0.00 0.00 81 1013.2
20260510121841 56 339 0.0 0.0 0.00 0.00 0.00 81 1013.3
20260510120554 56 338 0.0 0.0 0.00 0.00 0.00 81 1013.3
20260510120338 56 338 0.0 0.0 0.00 0.00 0.00 81 1013.3
20260510115033 56 338 0.0 0.0 0.00 0.00 0.00 81 1013.3
20260510114841 56 338 0.0 0.0 0.00 0.00 0.00 81 1013.3
20260510113534 56 338 0.0 0.0 0.00 0.00 0.00 81 1013.3
20260510113319 56 338 0.0 0.0 0.00 0.00 0.00 81 1013.3
20260510112035 56 338 0.0 0.0 0.00 0.00 0.00 81 1013.3
20260510111901 56 338 0.0 0.0 0.00 0.00 0.00 81 1013.2
20260510110533 56 338 0.0 0.0 0.00 0.00 0.00 81 1013.2
20260510110324 56 338 0.0 0.0 0.00 0.00 0.00 81 1013.2
20260510105038 56 335 0.0 0.0 0.00 0.00 0.00 81 1013.2
20260510104824 56 334 0.0 0.0 0.00 0.00 0.00 81 1013.2
20260510103539 56 331 0.0 0.0 0.00 0.00 0.00 81 1013.2
20260510103328 56 331 0.0 0.0 0.00 0.00 0.00 81 1013.3
20260510102021 56 331 0.0 0.0 0.00 0.00 0.00 81 1013.3
20260510101826 56 331 0.0 0.0 0.00 0.00 0.00 81 1013.3
20260510100540 56 331 0.0 0.0 0.00 0.00 0.00 81 1013.3
20260510100322 56 331 0.0 0.0 0.00 0.00 0.00 81 1013.4
20260510095020 57 331 0.0 0.0 0.00 0.00 0.00 81 1013.4
20260510094846 57 331 0.0 0.0 0.00 0.00 0.00 81 1013.5
20260510093559 57 331 0.0 0.0 0.00 0.00 0.00 81 1013.5
20260510093347 57 331 0.0 0.0 0.00 0.00 0.00 81 1013.4
20260510092023 57 342 0.0 0.0 0.00 0.00 0.00 82 1013.4
20260510091828 57 342 0.0 0.0 0.00 0.00 0.00 81 1013.5
20260510090522 57 342 0.0 0.0 0.00 0.00 0.00 81 1013.5
20260510090348 57 342 0.0 0.0 0.00 0.00 0.00 81 1013.5
20260510085020 57 342 0.0 0.0 0.00 0.00 0.00 81 1013.5
20260510084829 57 342 0.0 0.0 0.00 0.00 0.00 81 1013.5
20260510083602 57 342 0.0 0.0 0.00 0.00 0.00 81 1013.5
20260510083322 57 342 0.0 0.0 0.00 0.00 0.00 81 1013.6
20260510082034 57 342 0.0 0.0 0.00 0.00 0.00 81 1013.6
20260510081823 57 342 0.0 0.0 0.00 0.00 0.00 81 1013.6
20260510080536 57 342 0.0 0.0 0.00 0.00 0.00 81 1013.6
20260510080345 57 342 0.0 0.0 0.00 0.00 0.00 81 1013.6
20260510075037 57 342 0.0 0.0 0.00 0.00 0.00 80 1013.6
20260510074823 57 342 0.0 0.0 0.00 0.00 0.00 80 1013.6
20260510073536 57 342 0.0 0.0 0.00 0.00 0.00 81 1013.6
20260510073322 57 342 0.0 0.0 0.00 0.00 0.00 81 1013.6
20260510072036 57 342 0.0 0.0 0.00 0.00 0.00 81 1013.6
20260510071826 57 342 0.0 0.0 0.00 0.00 0.00 80 1013.7
20260510070519 57 342 0.0 0.0 0.00 0.00 0.00 80 1013.7
20260510070328 57 342 0.0 0.0 0.00 0.00 0.00 80 1013.6
20260510065023 57 341 0.0 0.0 0.00 0.00 0.00 80 1013.6
20260510064833 57 341 0.0 0.0 0.00 0.00 0.00 80 1013.6
20260510063522 57 310 0.0 0.0 0.00 0.00 0.00 80 1013.6
20260510063330 57 310 0.0 0.0 0.00 0.00 0.00 80 1013.6
20260510062027 57 310 0.0 0.0 0.00 0.00 0.00 80 1013.6
20260510061853 57 310 0.0 0.0 0.00 0.00 0.00 81 1013.7
20260510060526 57 310 0.0 0.0 0.00 0.00 0.00 81 1013.7
20260510060336 57 310 0.0 0.0 0.00 0.00 0.00 81 1013.7
20260510055046 57 310 0.0 0.0 0.00 0.00 0.00 81 1013.7
20260510054834 57 310 0.0 0.0 0.00 0.00 0.00 81 1013.7
20260510053547 57 310 0.0 0.0 0.00 0.00 0.00 80 1013.7
20260510053331 57 310 0.0 0.0 0.00 0.00 0.00 80 1013.7
20260510052025 58 310 0.0 0.0 0.00 0.00 0.00 79 1013.7
20260510051850 58 309 0.0 0.0 0.00 0.00 0.00 79 1013.7
20260510050524 58 309 0.0 0.0 0.00 0.00 0.00 78 1013.7
20260510050332 58 310 0.0 0.0 0.00 0.00 0.00 78 1013.6
20260510045046 59 310 0.0 0.0 0.00 0.00 0.00 77 1013.6
20260510044851 59 309 0.0 0.0 0.00 0.00 0.00 77 1013.6
20260510043523 59 309 0.0 0.0 0.00 0.00 0.00 75 1013.6
20260510043331 59 309 0.0 0.0 0.00 0.00 0.00 75 1013.5
20260510042024 60 309 0.0 0.0 0.00 0.00 0.00 75 1013.5
20260510041834 60 310 0.0 0.0 0.00 0.00 0.00 74 1013.5
20260510040529 60 309 0.0 0.0 0.00 0.00 0.00 73 1013.5
20260510040333 60 265 0.0 0.0 0.00 0.00 0.00 73 1013.3
20260510035027 61 257 0.0 0.0 0.00 0.00 0.00 72 1013.3
20260510034836 61 257 0.0 0.0 0.00 0.00 0.00 72 1013.1
20260510033531 61 257 0.0 0.0 0.00 0.00 0.00 71 1013.1
20260510033337 61 257 0.0 0.0 0.00 0.00 0.00 70 1013.1
20260510032031 62 355 0.0 0.0 0.00 0.00 0.00 69 1013.1
20260510031839 62 355 0.0 0.0 0.00 0.00 0.00 68 1012.9
20260510030534 63 355 0.0 0.0 0.00 0.00 0.00 66 1012.9
20260510030325 63 355 0.0 0.0 0.00 0.00 0.00 65 1012.9
20260510025037 65 355 0.0 0.0 0.00 0.00 0.00 63 1012.9
20260510024841 65 282 0.0 0.0 0.00 0.00 0.00 63 1012.7
20260510023534 67 300 0.0 0.0 0.00 0.00 0.00 59 1012.7
20260510023401 67 300 0.0 0.0 0.00 0.00 0.00 58 1012.6
20260510022033 69 300 0.0 0.0 0.00 0.00 0.00 56 1012.6
20260510021822 69 300 0.0 0.0 0.00 0.00 0.00 56 1012.7
20260510020519 69 12 0.0 0.0 0.00 0.00 0.00 56 1012.7
20260510020324 69 12 0.0 0.0 0.00 0.00 0.00 56 1012.6
20260510015038 69 310 0.0 0.0 0.00 0.00 0.00 55 1012.6
20260510014827 69 310 0.0 0.0 0.00 0.00 0.00 56 1012.6
20260510013521 70 298 0.0 0.0 0.00 0.00 0.00 54 1012.6
20260510013326 70 313 0.0 0.0 0.00 0.00 0.00 53 1012.5
20260510012021 70 346 1.0 0.0 0.00 0.00 0.00 54 1012.5
20260510011824 70 27 1.0 0.0 0.00 0.00 0.00 53 1012.5
20260510010633 71 342 0.0 0.0 0.00 0.00 0.00 52 1012.5
20260510010328 71 350 1.0 0.0 0.00 0.00 0.00 52 1012.5
20260510005022 72 319 0.0 0.0 0.00 0.00 0.00 49 1012.5
20260510004828 72 360 0.0 0.0 0.00 0.00 0.00 50 1012.5
20260510003521 72 292 1.0 0.0 0.00 0.00 0.00 50 1012.5
20260510003325 72 15 1.0 0.0 0.00 0.00 0.00 51 1012.4
20260510002019 73 333 0.0 0.0 0.00 0.00 0.00 48 1012.4
20260510001829 73 337 0.0 0.0 0.00 0.00 0.00 48 1012.4
20260510000522 73 279 1.0 0.0 0.00 0.00 0.00 50 1012.4
20260510000328 73 28 1.0 0.0 0.00 0.00 0.00 51 1012.2
20260509235021 74 275 0.0 0.0 0.00 0.00 0.00 49 1012.2
20260509234846 74 355 0.0 0.0 0.00 0.00 0.00 48 1012.2
20260509233539 76 314 0.0 0.0 0.00 0.00 0.00 46 1012.2
20260509233331 76 5 0.0 0.0 0.00 0.00 0.00 47 1012.2
20260509232025 75 303 0.0 0.0 0.00 0.00 0.00 47 1012.1
20260509231830 75 349 0.0 0.0 0.00 0.00 0.00 48 1012.2
20260509230544 75 5 2.0 0.0 0.00 0.00 0.00 47 1012.2
20260509230328 75 13 1.0 0.0 0.00 0.00 0.00 46 1012.3
20260509225021 75 299 1.0 0.0 0.00 0.00 0.00 46 1012.3
20260509224831 75 278 1.0 0.0 0.00 0.00 0.00 47 1012.5
20260509223529 75 280 2.0 0.0 0.00 0.00 0.00 51 1012.5
20260509223333 75 308 2.0 0.0 0.00 0.00 0.00 48 1012.5
20260509222035 78 18 1.0 0.0 0.00 0.00 0.00 43 1012.6
20260509221839 78 322 1.0 0.0 0.00 0.00 0.00 43 1012.5
20260509220533 77 294 0.0 0.0 0.00 0.00 0.00 47 1012.5
20260509220359 77 294 1.0 0.0 0.00 0.00 0.00 46 1012.5
20260509215032 78 298 0.0 0.0 0.00 0.00 0.00 45 1012.5
20260509214836 78 297 0.0 0.0 0.00 0.00 0.00 45 1012.6
20260509213550 79 298 0.0 0.0 0.00 0.00 0.00 43 1012.6
20260509213338 79 300 0.0 0.0 0.00 0.00 0.00 44 1012.6
20260509212032 79 5 1.0 0.0 0.00 0.00 0.00 42 1012.6
20260509211837 79 15 0.0 0.0 0.00 0.00 0.00 42 1012.5
20260509210530 79 5 0.0 0.0 0.00 0.00 0.00 43 1012.5
20260509210354 79 331 0.0 0.0 0.00 0.00 0.00 44 1012.6
20260509205027 79 26 1.0 0.0 0.00 0.00 0.00 42 1012.6
20260509204834 79 27 1.0 0.0 0.00 0.00 0.00 41 1012.7
20260509203527 79 333 0.0 0.0 0.00 0.00 0.00 41 1012.7
20260509203330 79 332 0.0 0.0 0.00 0.00 0.00 39 1012.9
20260509202031 78 355 1.0 0.0 0.00 0.00 0.00 39 1012.9
20260509201858 78 26 0.0 0.0 0.00 0.00 0.00 38 1013.0
20260509200530 77 296 1.0 0.0 0.00 0.00 0.00 38 1013.0
20260509200355 77 295 2.0 0.0 0.00 0.00 0.00 39 1013.1
20260509195052 77 249 0.0 0.0 0.00 0.00 0.00 40 1013.1
20260509194839 77 229 0.0 0.0 0.00 0.00 0.00 41 1013.1
20260509193533 76 26 0.0 0.0 0.00 0.00 0.00 40 1013.1
20260509193319 76 327 0.0 0.0 0.00 0.00 0.00 41 1013.2
20260509192035 74 219 1.0 0.0 0.00 0.00 0.00 41 1013.1
20260509191823 74 219 1.0 0.0 0.00 0.00 0.00 40 1013.4
20260509190521 73 338 0.0 0.0 0.00 0.00 0.00 44 1013.4
20260509190325 73 338 0.0 0.0 0.00 0.00 0.00 45 1013.6
20260509185041 71 254 1.0 0.0 0.00 0.00 0.00 46 1013.6
20260509184822 71 255 1.0 0.0 0.00 0.00 0.00 46 1013.6
20260509183536 71 253 1.0 0.0 0.00 0.00 0.00 47 1013.6
20260509183324 71 253 0.0 0.0 0.00 0.00 0.00 48 1013.6
20260509182037 70 277 0.0 0.0 0.00 0.00 0.00 50 1013.6
20260509181841 70 277 0.0 0.0 0.00 0.00 0.00 51 1013.8
20260509180535 68 259 0.0 0.0 0.00 0.00 0.00 52 1013.8
20260509180320 68 259 0.0 0.0 0.00 0.00 0.00 54 1013.9
20260509175017 66 246 1.0 0.0 0.00 0.00 0.00 55 1013.9
20260509174828 66 246 1.0 0.0 0.00 0.00 0.00 55 1014.0
20260509173542 67 281 0.0 0.0 0.00 0.00 0.00 55 1014.0
20260509173324 66 281 0.0 0.0 0.00 0.00 0.00 57 1014.1
20260509172037 64 281 0.0 0.0 0.00 0.00 0.00 59 1014.0
20260509171826 64 281 0.0 0.0 0.00 0.00 0.00 58 1013.9
20260509170556 63 257 1.0 0.0 0.00 0.00 0.00 62 1013.9
20260509170324 63 257 0.0 0.0 0.00 0.00 0.00 63 1014.0
20260509165038 63 240 0.0 0.0 0.00 0.00 0.00 62 1014.0
20260509164824 63 240 0.0 0.0 0.00 0.00 0.00 63 1014.0
20260509163538 61 296 0.0 0.0 0.00 0.00 0.00 67 1014.0
20260509163328 61 296 0.0 0.0 0.00 0.00 0.00 67 1014.1
20260509162022 60 299 0.0 0.0 0.00 0.00 0.00 70 1014.1
20260509161826 60 299 0.0 0.0 0.00 0.00 0.00 71 1014.1
20260509160540 58 296 0.0 0.0 0.00 0.00 0.00 74 1014.1
20260509160322 58 27 0.0 0.0 0.00 0.00 0.00 75 1014.1
20260509155035 57 32 0.0 0.0 0.00 0.00 0.00 79 1014.1
20260509154844 57 34 0.0 0.0 0.00 0.00 0.00 79 1014.1
20260509153536 55 185 0.0 0.0 0.00 0.00 0.00 82 1014.1
20260509153342 55 190 0.0 0.0 0.00 0.00 0.00 82 1014.1
20260509152038 54 190 0.0 0.0 0.00 0.00 0.00 83 1014.1
20260509151840 54 190 0.0 0.0 0.00 0.00 0.00 83 1014.1
20260509150536 54 190 0.0 0.0 0.00 0.00 0.00 84 1014.1
20260509150325 54 190 0.0 0.0 0.00 0.00 0.00 84 1014.1